Hourly Data Report for October 04, 2017

All times are specified in Local Standard Time (LST). Add 1 hour to adjust for Daylight Saving Time where and when it is observed.

WEST VANCOUVER AUT
BRITISH COLUMBIA

49°20'49.350" N
123°11'35.910" W
170.20 m
1108824
71784
WWA

Download Data

Hourly Data (October 2017)
Hourly Data Report for October 4, 2017
Temp Definition
°C
Dew Point Temp Definition
°C
Rel Hum Definition
%
Wind Dir Definition
10's deg

Wind Spd Definition
km/h
Visibility Definition
km
Stn Press Definition
kPa
Hmdx Definition


Wind Chill Definition


Weather Definition


TIME
00:00 10.3 1.7 55 32 2   100.26     LegendNANA
01:00 10.1 3.2 62 5 2   100.27     LegendNANA
02:00 10.1 2.3 59 3 3   100.27     LegendNANA
03:00 10.0 1.6 56 2 3   100.23     LegendNANA
04:00 9.9 1.6 56 2 4   100.19     LegendNANA
05:00 9.1 1.9 61 3 2   100.14     LegendNANA
06:00 8.9 2.3 63 5 1   100.13     LegendNANA
07:00 9.2 2.6 63 4 1   100.14     LegendNANA
08:00 10.5 3.4 62 0 1   100.16     LegendNANA
09:00 12.2 5.0 61 20 1   100.16     LegendNANA
10:00 14.7 5.2 53 20 2   100.16     LegendNANA
11:00 15.0 1.9 41 20 3   100.15     LegendNANA
12:00 15.5 3.3 44 15 3   100.11     LegendNANA
13:00 15.6 6.3 54 19 3   100.12     LegendNANA
14:00 16.4 3.9 43 18 3   100.11     LegendNANA
15:00 17.7 4.3 41 17 2   100.08     LegendNANA
16:00 16.5 4.3 44   0   100.06     LegendNANA
17:00 14.4 4.7 52 0 1   100.03     LegendNANA
18:00 13.1 4.0 54 3 2   100.04     LegendNANA
19:00 12.2 -0.2 42 2 3   100.05     LegendNANA
20:00 12.2 -1.7 38 2 5   100.07     LegendNANA
21:00 11.4 -1.0 42 2 2   100.06     LegendNANA
22:00 11.3 0.0 46 3 2   100.08     LegendNANA
23:00 11.0 -0.3 46 2 3   100.11     LegendNANA

Notes on Data Quality.

Legend

  • E = Estimated
  • M = Missing
  • NA = Not Available
  • ‡ = Partner data that is not subject to review by the National Climate Archives
Date modified: